Погода в Сергине

Россия / Удмуртская Республика     58°24′33″N   53°31′50″E
темп.,
°C
ветер,
м/с
пор.,
м/с
влажн.,
%
обл.,
%
осадки,
мм/ч
давл.,
гПа
погр.,
м
27 января, ср
ср2701:00−4ююз389499 0.1 1023424
04:00−8ююз489698 0.1 1023316
07:00−8ю2795100 0.1 1023268
10:00−9ююз3994100 0.2 1022327
13:00−4ююз4892100 0.1 1022431
16:00−3ююз51092100 0.1 1021648
19:00−2ююз61390100 0.0 1019677
22:00−2ююз61390100 0.1 1018753
28 января, чт
чт2801:00−5ююз51390100 0.1 1018567
04:00−5ююз61391100 0.1 1017573
07:00−5юз61394100 1.1 1016658
10:00−5юз51291100 2.2 1015634
13:00−3юз51092100 0.1 1016528
16:00−3ююз41093100 0.3 1017458
19:00−4ююз3895100 0.3 1018342
22:00−4ююз3994100 0.6 1018362
29 января, пт
пт2901:00−6ююз3895100 0.0 1018311
04:00−8ю2796100 0.0 1018232
07:00−9ююв269698 0.0 1018175
10:00−10ююв369587 0.0 1018177
13:00−7юв369192 0.0 1017261
16:00−7вюв379396 0.0 1015267
19:00−8вюв41194100 0.0 1013294
22:00−7вюв41189100 0.0 1011351
30 января, сб
сб3001:00−6юв41288100 0.0 1010523
04:00−5ююв4994100 1.1 1009585
07:00−6ююв3109499 0.3 1009444
10:00−6юв4109399 0.4 1009470
13:00−4ююв4992100 0.2 1009581
16:00−4юв51092100 0.3 1007710
19:00−3юв61292100 0.1 1005871
22:00−2ююв61295100 1.2 1003908
31 января, вс
вс3101:00−3юз51187100 1.4 1004808
04:00−7ююз4129388 1.4 1006518
07:00−8ююз51193100 0.1 1007525
10:00−9ююз41193100 0.1 1009469
13:00−8ю4893100 0.0 1010380
16:00−6ююв3993100 0.1 1009413
19:00−2ююв51395100 1.5 1006821
22:000ю71596100 3.3 10041199